Time,TemperatureF,DewpointF,PressureIn,WindDirection,WindDirectionDegrees,WindSpeedMPH,WindSpeedGustMPH,Humidity,HourlyPrecipIn,Conditions,Clouds,dailyrainin,SolarRadiationWatts/m^2,SoftwareType,DateUTC
2013-03-13 00:02:00,34.0,19.0,-100.00,East,87,0.0,7.0,54,0.00,,,0.00,0.000000,,2013-03-13 06:02:00,
2013-03-13 00:12:00,34.0,19.0,-100.00,East,87,0.0,7.0,54,0.00,,,0.00,0.000000,,2013-03-13 06:12:00,
2013-03-13 00:21:00,38.0,21.0,-100.00,SSE,161,4.0,6.0,50,0.00,,,0.00,0.000000,,2013-03-13 06:21:00,
2013-03-13 00:42:00,38.0,21.0,-100.00,SSE,161,4.0,6.0,50,0.00,,,0.00,0.000000,,2013-03-13 06:42:00,
2013-03-13 00:52:00,38.0,21.0,-100.00,SSE,161,4.0,6.0,50,0.00,,,0.00,0.000000,,2013-03-13 06:52:00,
2013-03-13 01:02:00,38.0,21.0,-100.00,SSE,161,4.0,6.0,50,0.00,,,0.00,0.000000,,2013-03-13 07:02:00,
2013-03-13 01:12:00,38.0,21.0,-100.00,SSE,161,4.0,6.0,50,0.00,,,0.00,0.000000,,2013-03-13 07:12:00,
2013-03-13 01:21:00,36.0,20.0,-100.00,SSE,168,5.0,8.0,52,0.00,,,0.00,0.000000,,2013-03-13 07:21:00,
2013-03-13 01:43:00,36.0,20.0,-100.00,SSE,168,5.0,8.0,52,0.00,,,0.00,0.000000,,2013-03-13 07:43:00,
2013-03-13 01:53:00,36.0,20.0,-100.00,SSE,168,5.0,8.0,52,0.00,,,0.00,0.000000,,2013-03-13 07:53:00,
2013-03-13 02:03:00,36.0,20.0,-100.00,SSE,168,5.0,8.0,52,0.00,,,0.00,0.000000,,2013-03-13 08:03:00,
2013-03-13 02:12:00,36.0,20.0,-100.00,SSE,168,5.0,8.0,52,0.00,,,0.00,0.000000,,2013-03-13 08:12:00,
2013-03-13 02:21:00,39.0,21.0,-100.00,SSW,197,6.0,10.0,48,0.00,,,0.00,0.000000,,2013-03-13 08:21:00,
2013-03-13 02:43:00,39.0,21.0,-100.00,SSW,197,6.0,10.0,48,0.00,,,0.00,0.000000,,2013-03-13 08:43:00,
2013-03-13 02:54:00,39.0,21.0,-100.00,SSW,197,6.0,10.0,48,0.00,,,0.00,0.000000,,2013-03-13 08:54:00,
2013-03-13 03:02:00,39.0,21.0,-100.00,SSW,197,6.0,10.0,48,0.00,,,0.00,0.000000,,2013-03-13 09:02:00,
2013-03-13 03:12:00,39.0,21.0,-100.00,SSW,197,6.0,10.0,48,0.00,,,0.00,0.000000,,2013-03-13 09:12:00,
2013-03-13 03:21:00,41.0,21.0,-100.00,SSW,208,8.0,13.0,45,0.00,,,0.00,0.000000,,2013-03-13 09:21:00,
2013-03-13 03:42:00,41.0,21.0,-100.00,SSW,208,8.0,13.0,45,0.00,,,0.00,0.000000,,2013-03-13 09:42:00,
2013-03-13 03:52:00,41.0,21.0,-100.00,SSW,208,8.0,13.0,45,0.00,,,0.00,0.000000,,2013-03-13 09:52:00,
2013-03-13 04:02:00,41.0,21.0,-100.00,SSW,208,8.0,13.0,45,0.00,,,0.00,0.000000,,2013-03-13 10:02:00,
2013-03-13 04:12:00,41.0,21.0,-100.00,SSW,208,8.0,13.0,45,0.00,,,0.00,0.000000,,2013-03-13 10:12:00,
2013-03-13 04:21:00,40.0,22.0,-100.00,SSW,209,9.0,12.0,48,0.00,,,0.00,0.000000,,2013-03-13 10:21:00,
2013-03-13 04:42:00,40.0,22.0,-100.00,SSW,209,9.0,12.0,48,0.00,,,0.00,0.000000,,2013-03-13 10:42:00,
2013-03-13 04:52:00,40.0,22.0,-100.00,SSW,209,9.0,12.0,48,0.00,,,0.00,0.000000,,2013-03-13 10:52:00,
2013-03-13 05:02:00,40.0,22.0,-100.00,SSW,209,9.0,12.0,48,0.00,,,0.00,0.000000,,2013-03-13 11:02:00,
2013-03-13 05:12:00,40.0,22.0,-100.00,SSW,209,9.0,12.0,48,0.00,,,0.00,0.000000,,2013-03-13 11:12:00,
2013-03-13 05:21:00,39.0,23.0,-100.00,SW,223,6.0,12.0,53,0.00,,,0.00,0.000000,,2013-03-13 11:21:00,
2013-03-13 05:42:00,39.0,23.0,-100.00,SW,223,6.0,12.0,53,0.00,,,0.00,0.000000,,2013-03-13 11:42:00,
2013-03-13 05:52:00,39.0,23.0,-100.00,SW,223,6.0,12.0,53,0.00,,,0.00,0.000000,,2013-03-13 11:52:00,
2013-03-13 06:02:00,39.0,23.0,-100.00,SW,223,6.0,12.0,53,0.00,,,0.00,0.000000,,2013-03-13 12:02:00,
2013-03-13 06:12:00,39.0,23.0,-100.00,SW,223,6.0,12.0,53,0.00,,,0.00,0.000000,,2013-03-13 12:12:00,
2013-03-13 06:21:00,41.0,24.0,-100.00,SW,234,9.0,12.0,51,0.00,,,0.00,0.000000,,2013-03-13 12:21:00,
2013-03-13 06:42:00,41.0,24.0,-100.00,SW,234,9.0,12.0,51,0.00,,,0.00,0.000000,,2013-03-13 12:42:00,
2013-03-13 06:53:00,41.0,24.0,-100.00,SW,234,9.0,12.0,51,0.00,,,0.00,0.000000,,2013-03-13 12:53:00,
2013-03-13 07:02:00,41.0,24.0,-100.00,SW,234,9.0,12.0,51,0.00,,,0.00,0.000000,,2013-03-13 13:02:00,
2013-03-13 07:12:00,41.0,24.0,-100.00,SW,234,9.0,12.0,51,0.00,,,0.00,0.000000,,2013-03-13 13:12:00,
2013-03-13 07:21:00,42.0,25.0,-100.00,WSW,238,10.0,15.0,50,0.00,,,0.00,0.000000,,2013-03-13 13:21:00,
2013-03-13 07:43:00,42.0,25.0,-100.00,WSW,238,10.0,15.0,50,0.00,,,0.00,0.000000,,2013-03-13 13:43:00,
2013-03-13 07:52:00,42.0,25.0,-100.00,WSW,238,10.0,15.0,50,0.00,,,0.00,0.000000,,2013-03-13 13:52:00,
2013-03-13 08:02:00,42.0,25.0,-100.00,WSW,238,10.0,15.0,50,0.00,,,0.00,0.000000,,2013-03-13 14:02:00,
2013-03-13 08:12:00,42.0,25.0,-100.00,WSW,238,10.0,15.0,50,0.00,,,0.00,0.000000,,2013-03-13 14:12:00,
2013-03-13 08:21:00,43.0,25.0,-100.00,WSW,237,8.0,14.0,48,0.00,,,0.00,34.000000,,2013-03-13 14:21:00,
2013-03-13 08:53:00,43.0,25.0,-100.00,WSW,237,8.0,14.0,48,0.00,,,0.00,34.000000,,2013-03-13 14:53:00,
2013-03-13 09:03:00,43.0,25.0,-100.00,WSW,237,8.0,14.0,48,0.00,,,0.00,34.000000,,2013-03-13 15:03:00,
2013-03-13 09:12:00,43.0,25.0,-100.00,WSW,237,8.0,14.0,48,0.00,,,0.00,34.000000,,2013-03-13 15:12:00,
2013-03-13 09:21:00,46.0,27.0,-100.00,SW,220,6.0,13.0,47,0.00,,,0.00,115.000000,,2013-03-13 15:21:00,
2013-03-13 09:43:00,46.0,27.0,-100.00,SW,220,6.0,13.0,47,0.00,,,0.00,115.000000,,2013-03-13 15:43:00,
2013-03-13 09:53:00,46.0,27.0,-100.00,SW,220,6.0,13.0,47,0.00,,,0.00,115.000000,,2013-03-13 15:53:00,
2013-03-13 10:03:00,46.0,27.0,-100.00,SW,220,6.0,13.0,47,0.00,,,0.00,115.000000,,2013-03-13 16:03:00,
2013-03-13 10:12:00,46.0,27.0,-100.00,SW,220,6.0,13.0,47,0.00,,,0.00,115.000000,,2013-03-13 16:12:00,
2013-03-13 10:21:00,54.0,29.0,-100.00,SW,232,7.0,12.0,38,0.00,,,0.00,387.000000,,2013-03-13 16:21:00,
2013-03-13 10:42:00,54.0,29.0,-100.00,SW,232,7.0,12.0,38,0.00,,,0.00,387.000000,,2013-03-13 16:42:00,
2013-03-13 10:52:00,54.0,29.0,-100.00,SW,232,7.0,12.0,38,0.00,,,0.00,387.000000,,2013-03-13 16:52:00,
2013-03-13 11:02:00,54.0,29.0,-100.00,SW,232,7.0,12.0,38,0.00,,,0.00,387.000000,,2013-03-13 17:02:00,
2013-03-13 11:12:00,54.0,29.0,-100.00,SW,232,7.0,12.0,38,0.00,,,0.00,387.000000,,2013-03-13 17:12:00,
2013-03-13 11:21:00,58.0,29.0,-100.00,WSW,248,11.0,20.0,33,0.00,,,0.00,521.000000,,2013-03-13 17:21:00,
2013-03-13 11:42:00,58.0,29.0,-100.00,WSW,248,11.0,20.0,33,0.00,,,0.00,521.000000,,2013-03-13 17:42:00,
2013-03-13 11:53:00,58.0,29.0,-100.00,WSW,248,11.0,20.0,33,0.00,,,0.00,521.000000,,2013-03-13 17:53:00,
2013-03-13 12:02:00,58.0,29.0,-100.00,WSW,248,11.0,20.0,33,0.00,,,0.00,521.000000,,2013-03-13 18:02:00,
2013-03-13 12:12:00,58.0,29.0,-100.00,WSW,248,11.0,20.0,33,0.00,,,0.00,521.000000,,2013-03-13 18:12:00,
2013-03-13 12:21:00,60.0,27.0,-100.00,WSW,251,16.0,27.0,28,0.00,,,0.00,627.000000,,2013-03-13 18:21:00,
2013-03-13 12:43:00,60.0,27.0,-100.00,WSW,251,16.0,27.0,28,0.00,,,0.00,627.000000,,2013-03-13 18:43:00,
2013-03-13 12:52:00,60.0,27.0,-100.00,WSW,251,16.0,27.0,28,0.00,,,0.00,627.000000,,2013-03-13 18:52:00,
2013-03-13 13:02:00,60.0,27.0,-100.00,WSW,251,16.0,27.0,28,0.00,,,0.00,627.000000,,2013-03-13 19:02:00,
2013-03-13 13:12:00,60.0,27.0,-100.00,WSW,251,16.0,27.0,28,0.00,,,0.00,627.000000,,2013-03-13 19:12:00,
2013-03-13 13:21:00,62.0,27.0,-100.00,West,268,20.0,32.0,26,0.00,,,0.00,676.000000,,2013-03-13 19:21:00,
2013-03-13 13:43:00,62.0,27.0,-100.00,West,268,20.0,32.0,26,0.00,,,0.00,676.000000,,2013-03-13 19:43:00,
2013-03-13 13:53:00,62.0,27.0,-100.00,West,268,20.0,32.0,26,0.00,,,0.00,676.000000,,2013-03-13 19:53:00,
2013-03-13 14:02:00,62.0,27.0,-100.00,West,268,20.0,32.0,26,0.00,,,0.00,676.000000,,2013-03-13 20:02:00,
2013-03-13 14:12:00,62.0,27.0,-100.00,West,268,20.0,32.0,26,0.00,,,0.00,676.000000,,2013-03-13 20:12:00,
2013-03-13 14:21:00,64.0,28.0,-100.00,West,267,14.0,36.0,26,0.00,,,0.00,695.000000,,2013-03-13 20:21:00,
2013-03-13 14:42:00,64.0,28.0,-100.00,West,267,14.0,36.0,26,0.00,,,0.00,695.000000,,2013-03-13 20:42:00,
2013-03-13 14:52:00,64.0,28.0,-100.00,West,267,14.0,36.0,26,0.00,,,0.00,695.000000,,2013-03-13 20:52:00,
2013-03-13 15:02:00,64.0,28.0,-100.00,West,267,14.0,36.0,26,0.00,,,0.00,695.000000,,2013-03-13 21:02:00,
2013-03-13 15:12:00,64.0,28.0,-100.00,West,267,14.0,36.0,26,0.00,,,0.00,695.000000,,2013-03-13 21:12:00,
2013-03-13 15:21:00,65.0,27.0,-100.00,WNW,289,15.0,28.0,24,0.00,,,0.00,636.000000,,2013-03-13 21:21:00,
2013-03-13 15:42:00,65.0,27.0,-100.00,WNW,289,15.0,28.0,24,0.00,,,0.00,636.000000,,2013-03-13 21:42:00,
2013-03-13 15:52:00,65.0,27.0,-100.00,WNW,289,15.0,28.0,24,0.00,,,0.00,636.000000,,2013-03-13 21:52:00,
2013-03-13 16:02:00,65.0,27.0,-100.00,WNW,289,15.0,28.0,24,0.00,,,0.00,636.000000,,2013-03-13 22:02:00,
2013-03-13 16:12:00,65.0,27.0,-100.00,WNW,289,15.0,28.0,24,0.00,,,0.00,636.000000,,2013-03-13 22:12:00,
2013-03-13 16:21:00,66.0,27.0,-100.00,West,280,13.0,29.0,23,0.00,,,0.00,475.000000,,2013-03-13 22:21:00,
2013-03-13 16:42:00,66.0,27.0,-100.00,West,280,13.0,29.0,23,0.00,,,0.00,475.000000,,2013-03-13 22:42:00,
2013-03-13 16:52:00,66.0,27.0,-100.00,West,280,13.0,29.0,23,0.00,,,0.00,475.000000,,2013-03-13 22:52:00,
2013-03-13 17:02:00,66.0,27.0,-100.00,West,280,13.0,29.0,23,0.00,,,0.00,475.000000,,2013-03-13 23:02:00,
2013-03-13 17:12:00,66.0,27.0,-100.00,West,280,13.0,29.0,23,0.00,,,0.00,475.000000,,2013-03-13 23:12:00,
2013-03-13 18:21:00,64.0,28.0,-100.00,NW,310,6.0,0.0,26,-99.99,,,-99.99,0.000000,,2013-03-14 00:21:00,
2013-03-13 18:42:00,64.0,28.0,-100.00,NW,310,6.0,0.0,26,-99.99,,,-99.99,0.000000,,2013-03-14 00:42:00,
2013-03-13 18:52:00,64.0,28.0,-100.00,NW,310,6.0,0.0,26,-99.99,,,-99.99,0.000000,,2013-03-14 00:52:00,
2013-03-13 19:02:00,64.0,28.0,-100.00,NW,310,6.0,0.0,26,-99.99,,,-99.99,0.000000,,2013-03-14 01:02:00,
2013-03-13 19:12:00,64.0,28.0,-100.00,NW,310,6.0,0.0,26,-99.99,,,-99.99,0.000000,,2013-03-14 01:12:00,
2013-03-13 19:21:00,60.0,29.0,-100.00,WNW,286,7.0,14.0,31,0.00,,,-99.99,27.000000,,2013-03-14 01:21:00,
2013-03-13 19:42:00,60.0,29.0,-100.00,WNW,286,7.0,14.0,31,0.00,,,-99.99,27.000000,,2013-03-14 01:42:00,
2013-03-13 19:53:00,60.0,29.0,-100.00,WNW,286,7.0,14.0,31,0.00,,,-99.99,27.000000,,2013-03-14 01:53:00,
2013-03-13 20:02:00,60.0,29.0,-100.00,WNW,286,7.0,14.0,31,0.00,,,-99.99,27.000000,,2013-03-14 02:02:00,
2013-03-13 20:12:00,60.0,29.0,-100.00,WNW,286,7.0,14.0,31,0.00,,,-99.99,27.000000,,2013-03-14 02:12:00,
2013-03-13 20:21:00,58.0,31.0,-100.00,NW,312,5.0,12.0,35,0.00,,,-99.99,0.000000,,2013-03-14 02:21:00,
2013-03-13 21:02:00,58.0,31.0,-100.00,NW,312,5.0,12.0,35,0.00,,,-99.99,0.000000,,2013-03-14 03:02:00,
2013-03-13 21:12:00,58.0,31.0,-100.00,NW,312,5.0,12.0,35,0.00,,,-99.99,0.000000,,2013-03-14 03:12:00,
2013-03-13 21:21:00,55.0,29.0,-100.00,WNW,302,5.0,10.0,37,0.00,,,-99.99,0.000000,,2013-03-14 03:21:00,
2013-03-13 21:42:00,55.0,29.0,-100.00,WNW,302,5.0,10.0,37,0.00,,,-99.99,0.000000,,2013-03-14 03:42:00,
2013-03-13 21:53:00,55.0,29.0,-100.00,WNW,302,5.0,10.0,37,0.00,,,-99.99,0.000000,,2013-03-14 03:53:00,
2013-03-13 22:12:00,55.0,29.0,-100.00,WNW,302,5.0,10.0,37,0.00,,,-99.99,0.000000,,2013-03-14 04:12:00,
2013-03-13 22:21:00,56.0,30.0,-100.00,WNW,297,5.0,10.0,37,0.00,,,-99.99,0.000000,,2013-03-14 04:21:00,
2013-03-13 22:42:00,56.0,30.0,-100.00,WNW,297,5.0,10.0,37,0.00,,,-99.99,0.000000,,2013-03-14 04:42:00,
2013-03-13 22:53:00,56.0,30.0,-100.00,WNW,297,5.0,10.0,37,0.00,,,-99.99,0.000000,,2013-03-14 04:53:00,
2013-03-13 23:02:00,56.0,30.0,-100.00,WNW,297,5.0,10.0,37,0.00,,,-99.99,0.000000,,2013-03-14 05:02:00,
2013-03-13 23:12:00,56.0,30.0,-100.00,WNW,297,5.0,10.0,37,0.00,,,-99.99,0.000000,,2013-03-14 05:12:00,
2013-03-13 23:21:00,54.0,31.0,-100.00,NNE,15,4.0,7.0,41,0.00,,,-99.99,0.000000,,2013-03-14 05:21:00,
2013-03-13 23:42:00,54.0,31.0,-100.00,NNE,15,4.0,7.0,41,0.00,,,-99.99,0.000000,,2013-03-14 05:42:00,
2013-03-13 23:53:00,54.0,31.0,-100.00,NNE,15,4.0,7.0,41,0.00,,,-99.99,0.000000,,2013-03-14 05:53:00,